Location: Baix
(44.7118°N, 4.7648°E)
Time: 18:29:25
(UTC+00:00)

Cosmos 1908 - Pass Details

Date: 07 August 2020
Orbit: 510 x 531 km, 82.5° (Epoch: 23 September)

Event Time Altitude Azimuth Distance (km) Brightness Sun altitude
Exits shadow 03:37:55 - 191° (S) 2,217 6.0 -9.6°
Reaches altitude 10° 03:39:00 10° 192° (SSW) 1,772 5.5 -9.4°
Maximum altitude 03:42:54 78° 279° (W) 549 3.2 -8.8°
Drops below altitude 10° 03:46:50 10° 6° (N) 1,792 6.5 -8.2°
Sets 03:49:00 0° 8° (N) 2,688 7.5 -7.9°
